| time (UTC) | temp F | wind direction | speed MPH | gust MPH | rain 1hr in | rain 24hr in | rain mn in | humidity % | barometer mb |
| 20260503020702 | 73 | 346 | 1.0 | 3.0 | 0.00 | 0.00 | 0.00 | 32 | |
| 20260503020159 | 73 | 304 | 2.0 | 3.0 | 0.00 | 0.00 | 0.00 | 33 | |
| 20260503015656 | 73 | 0 | 2.0 | 2.0 | 0.00 | 0.00 | 0.00 | 31 | |
| 20260503015153 | 74 | 358 | 2.0 | 4.0 | 0.00 | 0.00 | 0.00 | 31 | |
| 20260503014649 | 74 | 300 | 0.0 | 3.0 | 0.00 | 0.00 | 0.00 | 31 | |
| 20260503014147 | 74 | 24 | 1.0 | 3.0 | 0.00 | 0.00 | 0.00 | 29 | |
| 20260503013644 | 75 | 326 | 0.0 | 2.0 | 0.00 | 0.00 | 0.00 | 27 | |
| 20260503013142 | 75 | 310 | 2.0 | 2.0 | 0.00 | 0.00 | 0.00 | 26 | |
| 20260503012638 | 76 | 358 | 2.0 | 4.0 | 0.00 | 0.00 | 0.00 | 24 | |
| 20260503012135 | 76 | 236 | 0.0 | 2.0 | 0.00 | 0.00 | 0.00 | 25 | |
| 20260503011632 | 76 | 280 | 1.0 | 2.0 | 0.00 | 0.00 | 0.00 | 25 | |
| 20260503011129 | 76 | 292 | 1.0 | 2.0 | 0.00 | 0.00 | 0.00 | 27 | |
| 20260503010625 | 77 | 256 | 0.0 | 2.0 | 0.00 | 0.00 | 0.00 | 23 | |
| 20260503010123 | 77 | 338 | 1.0 | 1.0 | 0.00 | 0.00 | 0.00 | 22 | |
| 20260503005619 | 77 | 285 | 0.0 | 2.0 | 0.00 | 0.00 | 0.00 | 24 | |
| 20260503005117 | 78 | 7 | 1.0 | 2.0 | 0.00 | 0.00 | 0.00 | 23 | |
| 20260503004613 | 78 | 336 | 0.0 | 3.0 | 0.00 | 0.00 | 0.00 | 28 | |
| 20260503004112 | 79 | 294 | 3.0 | 3.0 | 0.00 | 0.00 | 0.00 | 23 | |
| 20260503003608 | 78 | 39 | 1.0 | 2.0 | 0.00 | 0.00 | 0.00 | 23 | |
| 20260503003105 | 78 | 293 | 0.0 | 2.0 | 0.00 | 0.00 | 0.00 | 22 | |
| 20260503002602 | 78 | 265 | 5.0 | 5.0 | 0.00 | 0.00 | 0.00 | 20 | |
| 20260503002059 | 79 | 291 | 5.0 | 5.0 | 0.00 | 0.00 | 0.00 | 26 | |
| 20260503001555 | 81 | 252 | 1.0 | 3.0 | 0.00 | 0.00 | 0.00 | 20 | |
| 20260503001052 | 81 | 246 | 2.0 | 3.0 | 0.00 | 0.00 | 0.00 | 18 | |
| 20260503000550 | 81 | 22 | 0.0 | 3.0 | 0.00 | 0.00 | 0.00 | 22 | |
| 20260503000047 | 80 | 334 | 4.0 | 4.0 | 0.00 | 0.00 | 0.00 | 19 | |
| 20260502235543 | 80 | 346 | 3.0 | 4.0 | 0.00 | 0.00 | 0.00 | 20 | |
| 20260502235041 | 79 | 37 | 0.0 | 3.0 | 0.00 | 0.00 | 0.00 | 20 | |
| 20260502234537 | 79 | 331 | 3.0 | 4.0 | 0.00 | 0.00 | 0.00 | 20 | |
| 20260502234035 | 79 | 331 | 3.0 | 3.0 | 0.00 | 0.00 | 0.00 | 22 | |
| 20260502233535 | 79 | 100 | 2.0 | 5.0 | 0.00 | 0.00 | 0.00 | 22 | |
| 20260502233032 | 80 | 73 | 0.0 | 3.0 | 0.00 | 0.00 | 0.00 | 20 | |
| 20260502232528 | 81 | 80 | 2.0 | 3.0 | 0.00 | 0.00 | 0.00 | 23 | |
| 20260502232025 | 82 | 62 | 2.0 | 4.0 | 0.00 | 0.00 | 0.00 | 20 | |
| 20260502231522 | 83 | 65 | 2.0 | 5.0 | 0.00 | 0.00 | 0.00 | 20 | |
| 20260502231020 | 82 | 127 | 2.0 | 5.0 | 0.00 | 0.00 | 0.00 | 20 | |
| 20260502230518 | 81 | 50 | 4.0 | 6.0 | 0.00 | 0.00 | 0.00 | 21 | |
| 20260502230017 | 81 | 54 | 2.0 | 2.0 | 0.00 | 0.00 | 0.00 | 24 | |
| 20260502225517 | 82 | 41 | 2.0 | 3.0 | 0.00 | 0.00 | 0.00 | 22 | |
| 20260502225014 | 82 | 188 | 2.0 | 3.0 | 0.00 | 0.00 | 0.00 | 23 | |
| 20260502224510 | 79 | 342 | 0.0 | 4.0 | 0.00 | 0.00 | 0.00 | 21 | |
| 20260502224008 | 79 | 317 | 4.0 | 4.0 | 0.00 | 0.00 | 0.00 | 20 | |
| 20260502223505 | 79 | 95 | 5.0 | 5.0 | 0.00 | 0.00 | 0.00 | 19 | |
| 20260502223003 | 79 | 109 | 3.0 | 5.0 | 0.00 | 0.00 | 0.00 | 22 | |
| 20260502222500 | 79 | 91 | 2.0 | 5.0 | 0.00 | 0.00 | 0.00 | 21 | |
| 20260502221956 | 80 | 256 | 1.0 | 3.0 | 0.00 | 0.00 | 0.00 | 24 | |
| 20260502221452 | 80 | 99 | 4.0 | 4.0 | 0.00 | 0.00 | 0.00 | 21 | |
| 20260502220949 | 80 | 58 | 3.0 | 6.0 | 0.00 | 0.00 | 0.00 | 21 | |
| 20260502220445 | 80 | 199 | 1.0 | 4.0 | 0.00 | 0.00 | 0.00 | 20 | |
| 20260502215942 | 80 | 103 | 2.0 | 4.0 | 0.00 | 0.00 | 0.00 | 21 | |
| 20260502215439 | 81 | 160 | 2.0 | 4.0 | 0.00 | 0.00 | 0.00 | 19 | |
| 20260502214936 | 81 | 119 | 2.0 | 3.0 | 0.00 | 0.00 | 0.00 | 20 | |
| 20260502214433 | 80 | 64 | 0.0 | 5.0 | 0.00 | 0.00 | 0.00 | 23 | |
| 20260502213930 | 81 | 107 | 2.0 | 6.0 | 0.00 | 0.00 | 0.00 | 21 | |
| 20260502213426 | 82 | 210 | 3.0 | 9.0 | 0.00 | 0.00 | 0.00 | 20 | |
| 20260502212926 | 82 | 210 | 2.0 | 7.0 | 0.00 | 0.00 | 0.00 | 25 | |
| 20260502212424 | 82 | 277 | 4.0 | 5.0 | 0.00 | 0.00 | 0.00 | 24 | |
| 20260502211921 | 81 | 40 | 2.0 | 7.0 | 0.00 | 0.00 | 0.00 | 23 | |
| 20260502211416 | 83 | 47 | 2.0 | 3.0 | 0.00 | 0.00 | 0.00 | 26 | |
| 20260502210914 | 82 | 150 | 3.0 | 7.0 | 0.00 | 0.00 | 0.00 | 21 | |
| 20260502210411 | 82 | 195 | 4.0 | 8.0 | 0.00 | 0.00 | 0.00 | 22 | |
| 20260502205908 | 81 | 187 | 3.0 | 5.0 | 0.00 | 0.00 | 0.00 | 23 | |
| 20260502205404 | 79 | 203 | 3.0 | 4.0 | 0.00 | 0.00 | 0.00 | 24 | |
| 20260502204901 | 79 | 75 | 6.0 | 7.0 | 0.00 | 0.00 | 0.00 | 22 | |
| 20260502204358 | 81 | 57 | 1.0 | 5.0 | 0.00 | 0.00 | 0.00 | 24 | |
| 20260502203856 | 81 | 179 | 2.0 | 10.0 | 0.00 | 0.00 | 0.00 | 25 | |
| 20260502203353 | 80 | 209 | 2.0 | 7.0 | 0.00 | 0.00 | 0.00 | 24 | |
| 20260502202849 | 80 | 60 | 4.0 | 9.0 | 0.00 | 0.00 | 0.00 | 22 | |
| 20260502202346 | 81 | 60 | 3.0 | 8.0 | 0.00 | 0.00 | 0.00 | 23 | |
| 20260502201844 | 81 | 148 | 6.0 | 13.0 | 0.00 | 0.00 | 0.00 | 22 | |
| 20260502201340 | 80 | 10 | 2.0 | 4.0 | 0.00 | 0.00 | 0.00 | 25 | |
| 20260502200836 | 80 | 211 | 4.0 | 6.0 | 0.00 | 0.00 | 0.00 | 24 | |
| 20260502200332 | 80 | 109 | 2.0 | 6.0 | 0.00 | 0.00 | 0.00 | 26 | |
| 20260502195830 | 80 | 79 | 3.0 | 4.0 | 0.00 | 0.00 | 0.00 | 28 | |
| 20260502195327 | 80 | 54 | 2.0 | 8.0 | 0.00 | 0.00 | 0.00 | 25 | |
| 20260502194824 | 80 | 79 | 4.0 | 8.0 | 0.00 | 0.00 | 0.00 | 25 | |
| 20260502194321 | 80 | 188 | 3.0 | 8.0 | 0.00 | 0.00 | 0.00 | 26 | |
| 20260502193816 | 79 | 163 | 3.0 | 9.0 | 0.00 | 0.00 | 0.00 | 25 | |
| 20260502193314 | 78 | 147 | 3.0 | 12.0 | 0.00 | 0.00 | 0.00 | 24 | |
| 20260502192814 | 80 | 167 | 4.0 | 11.0 | 0.00 | 0.00 | 0.00 | 26 | |
| 20260502192312 | 79 | 297 | 2.0 | 9.0 | 0.00 | 0.00 | 0.00 | 26 | |
| 20260502191809 | 77 | 267 | 1.0 | 5.0 | 0.00 | 0.00 | 0.00 | 29 | |
| 20260502191307 | 77 | 159 | 6.0 | 11.0 | 0.00 | 0.00 | 0.00 | 28 | |
| 20260502190804 | 77 | 21 | 1.0 | 4.0 | 0.00 | 0.00 | 0.00 | 30 | |
| 20260502190301 | 76 | 26 | 3.0 | 6.0 | 0.00 | 0.00 | 0.00 | 34 | |
| 20260502185756 | 75 | 117 | 2.0 | 6.0 | 0.00 | 0.00 | 0.00 | 36 | |
| 20260502185247 | 74 | 28 | 1.0 | 5.0 | 0.00 | 0.00 | 0.00 | 35 | |
| 20260502184744 | 74 | 97 | 3.0 | 5.0 | 0.00 | 0.00 | 0.00 | 35 | |
| 20260502184240 | 74 | 103 | 1.0 | 9.0 | 0.00 | 0.00 | 0.00 | 35 | |
| 20260502183737 | 74 | 76 | 2.0 | 4.0 | 0.00 | 0.00 | 0.00 | 35 | |
| 20260502183232 | 74 | 143 | 2.0 | 3.0 | 0.00 | 0.00 | 0.00 | 35 | |
| 20260502182728 | 75 | 78 | 4.0 | 9.0 | 0.00 | 0.00 | 0.00 | 33 | |
| 20260502182223 | 75 | 91 | 3.0 | 8.0 | 0.00 | 0.00 | 0.00 | 32 | |
| 20260502181720 | 74 | 159 | 2.0 | 5.0 | 0.00 | 0.00 | 0.00 | 36 | |
| 20260502181219 | 75 | 198 | 1.0 | 6.0 | 0.00 | 0.00 | 0.00 | 34 | |
| 20260502180716 | 72 | 44 | 1.0 | 7.0 | 0.00 | 0.00 | 0.00 | 39 | |
| 20260502180214 | 72 | 89 | 3.0 | 9.0 | 0.00 | 0.00 | 0.00 | 35 | |
| 20260502170132 | 67 | 179 | 6.0 | 6.0 | 0.00 | 0.00 | 0.00 | 39 | |
| 20260502164113 | 65 | 176 | 5.0 | 7.0 | 0.00 | 0.00 | 0.00 | 41 | |
| 20260502163609 | 65 | 178 | 3.0 | 7.0 | 0.00 | 0.00 | 0.00 | 41 | |
| 20260502163106 | 64 | 159 | 4.0 | 9.0 | 0.00 | 0.00 | 0.00 | 42 | |
| 20260502162602 | 63 | 224 | 3.0 | 5.0 | 0.00 | 0.00 | 0.00 | 43 | |
| 20260502162100 | 63 | 161 | 6.0 | 8.0 | 0.00 | 0.00 | 0.00 | 43 | |
| 20260502161556 | 63 | 153 | 6.0 | 8.0 | 0.00 | 0.00 | 0.00 | 42 | |
| 20260502161054 | 62 | 148 | 5.0 | 7.0 | 0.00 | 0.00 | 0.00 | 44 | |
| 20260502160552 | 62 | 105 | 3.0 | 6.0 | 0.00 | 0.00 | 0.00 | 44 | |
| 20260502152005 | 56 | 110 | 2.0 | 5.0 | 0.00 | 0.00 | 0.00 | 58 | |
| 20260502151501 | 56 | 177 | 1.0 | 5.0 | 0.00 | 0.00 | 0.00 | 56 | |
| 20260502150959 | 55 | 189 | 4.0 | 5.0 | 0.00 | 0.00 | 0.00 | 57 | |
| 20260502150456 | 56 | 205 | 1.0 | 6.0 | 0.00 | 0.00 | 0.00 | 59 | |
| 20260502130341 | 51 | 139 | 3.0 | 6.0 | 0.00 | 0.00 | 0.00 | 56 | |
| 20260502123323 | 49 | 106 | 1.0 | 6.0 | 0.00 | 0.00 | 0.00 | 59 | |
| 20260502122820 | 49 | 138 | 7.0 | 8.0 | 0.00 | 0.00 | 0.00 | 58 | |
| 20260502122316 | 49 | 153 | 3.0 | 7.0 | 0.00 | 0.00 | 0.00 | 60 | |
| 20260502121815 | 48 | 145 | 4.0 | 6.0 | 0.00 | 0.00 | 0.00 | 62 | |
| 20260502121312 | 48 | 151 | 6.0 | 7.0 | 0.00 | 0.00 | 0.00 | 62 | |
| 20260502120809 | 48 | 169 | 4.0 | 10.0 | 0.00 | 0.00 | 0.00 | 62 | |
| 20260502120305 | 49 | 186 | 3.0 | 6.0 | 0.00 | 0.00 | 0.00 | 61 | |
| 20260502115803 | 49 | 111 | 2.0 | 5.0 | 0.00 | 0.00 | 0.00 | 60 | |
| 20260502115259 | 49 | 145 | 3.0 | 4.0 | 0.00 | 0.00 | 0.00 | 59 | |
| 20260502114755 | 50 | 125 | 2.0 | 4.0 | 0.00 | 0.00 | 0.00 | 58 | |
| 20260502114252 | 50 | 61 | 4.0 | 4.0 | 0.00 | 0.00 | 0.00 | 57 | |
| 20260502113749 | 50 | 150 | 5.0 | 8.0 | 0.00 | 0.00 | 0.00 | 57 | |
| 20260502113247 | 50 | 88 | 3.0 | 6.0 | 0.00 | 0.00 | 0.00 | 58 | |
| 20260502112745 | 49 | 137 | 6.0 | 6.0 | 0.00 | 0.00 | 0.00 | 60 | |
| 20260502112243 | 48 | 146 | 2.0 | 4.0 | 0.00 | 0.00 | 0.00 | 62 | |
| 20260502111739 | 48 | 124 | 3.0 | 5.0 | 0.00 | 0.00 | 0.00 | 62 | |
| 20260502111237 | 48 | 179 | 4.0 | 5.0 | 0.00 | 0.00 | 0.00 | 63 | |
| 20260502110734 | 48 | 148 | 4.0 | 6.0 | 0.00 | 0.00 | 0.00 | 62 | |
| 20260502110232 | 47 | 155 | 2.0 | 5.0 | 0.00 | 0.00 | 0.00 | 62 | |
| 20260502105730 | 47 | 143 | 2.0 | 8.0 | 0.00 | 0.00 | 0.00 | 62 | |
| 20260502105226 | 47 | 140 | 5.0 | 7.0 | 0.00 | 0.00 | 0.00 | 63 | |
| 20260502104724 | 46 | 161 | 2.0 | 5.0 | 0.00 | 0.00 | 0.00 | 65 | |
| 20260502104221 | 47 | 184 | 3.0 | 3.0 | 0.00 | 0.00 | 0.00 | 64 | |
| 20260502103719 | 47 | 157 | 0.0 | 4.0 | 0.00 | 0.00 | 0.00 | 64 | |
| 20260502103216 | 48 | 183 | 0.0 | 6.0 | 0.00 | 0.00 | 0.00 | 63 | |
| 20260502102713 | 47 | 114 | 2.0 | 5.0 | 0.00 | 0.00 | 0.00 | 64 | |
| 20260502102209 | 48 | 143 | 4.0 | 5.0 | 0.00 | 0.00 | 0.00 | 63 | |
| 20260502101708 | 48 | 128 | 2.0 | 6.0 | 0.00 | 0.00 | 0.00 | 63 | |
| 20260502101206 | 48 | 125 | 3.0 | 4.0 | 0.00 | 0.00 | 0.00 | 63 | |
| 20260502100703 | 47 | 122 | 2.0 | 8.0 | 0.00 | 0.00 | 0.00 | 63 | |
| 20260502100201 | 47 | 153 | 5.0 | 6.0 | 0.00 | 0.00 | 0.00 | 64 | |
| 20260502091136 | 52 | 135 | 2.0 | 5.0 | 0.00 | 0.00 | 0.00 | 53 | |
| 20260502090632 | 52 | 151 | 4.0 | 5.0 | 0.00 | 0.00 | 0.00 | 53 | |
| 20260502090130 | 52 | 162 | 5.0 | 6.0 | 0.00 | 0.00 | 0.00 | 53 | |
| 20260502071527 | 55 | 147 | 4.0 | 4.0 | 0.00 | 0.00 | 0.00 | 49 | |
| 20260502071025 | 55 | 146 | 2.0 | 3.0 | 0.00 | 0.00 | 0.00 | 49 | |
| 20260502070523 | 57 | 160 | 2.0 | 4.0 | 0.00 | 0.00 | 0.00 | 46 | |
| 20260502070021 | 58 | 137 | 2.0 | 4.0 | 0.00 | 0.00 | 0.00 | 42 | |
| 20260502065519 | 59 | 56 | 2.0 | 5.0 | 0.00 | 0.00 | 0.00 | 41 | |
| 20260502065017 | 59 | 97 | 4.0 | 9.0 | 0.00 | 0.00 | 0.00 | 41 | |
| 20260502064515 | 59 | 101 | 3.0 | 5.0 | 0.00 | 0.00 | 0.00 | 41 | |
| 20260502064012 | 59 | 62 | 2.0 | 6.0 | 0.00 | 0.00 | 0.00 | 41 | |
| 20260502063509 | 58 | 62 | 2.0 | 8.0 | 0.00 | 0.00 | 0.00 | 42 | |
| 20260502063007 | 56 | 64 | 5.0 | 5.0 | 0.00 | 0.00 | 0.00 | 45 | |
| 20260502062503 | 53 | 80 | 2.0 | 4.0 | 0.00 | 0.00 | 0.00 | 48 | |
| 20260502062002 | 51 | 86 | 2.0 | 3.0 | 0.00 | 0.00 | 0.00 | 51 | |
| 20260502061500 | 49 | 81 | 1.0 | 1.0 | 0.00 | 0.00 | 0.00 | 55 | |
| 20260502060955 | 49 | 69 | 2.0 | 2.0 | 0.00 | 0.00 | 0.00 | 56 | |
| 20260502060451 | 50 | 93 | 1.0 | 2.0 | 0.00 | 0.00 | 0.00 | 56 | |
| 20260502055948 | 50 | 137 | 1.0 | 2.0 | 0.00 | 0.00 | 0.00 | 58 | |
| 20260502055447 | 49 | 85 | 1.0 | 2.0 | 0.00 | 0.00 | 0.00 | 57 | |
| 20260502054946 | 48 | 89 | 2.0 | 2.0 | 0.00 | 0.00 | 0.00 | 57 | |
| 20260502054444 | 48 | 87 | 1.0 | 2.0 | 0.00 | 0.00 | 0.00 | 58 | |
| 20260502053941 | 48 | 92 | 1.0 | 2.0 | 0.00 | 0.00 | 0.00 | 58 | |
| 20260502053432 | 48 | 77 | 1.0 | 2.0 | 0.00 | 0.00 | 0.00 | 57 | |
| 20260502052930 | 50 | 62 | 0.0 | 1.0 | 0.00 | 0.00 | 0.00 | 57 | |
| 20260502052428 | 50 | 103 | 0.0 | 1.0 | 0.00 | 0.00 | 0.00 | 55 | |
| 20260502051926 | 51 | 103 | 0.0 | 2.0 | 0.00 | 0.00 | 0.00 | 52 | |
| 20260502051424 | 51 | 125 | 2.0 | 2.0 | 0.00 | 0.00 | 0.00 | 52 | |
| 20260502050920 | 51 | 106 | 1.0 | 1.0 | 0.00 | 0.00 | 0.00 | 51 | |
| 20260502050416 | 52 | 93 | 2.0 | 2.0 | 0.00 | 0.00 | 0.00 | 50 | |
| 20260502045914 | 53 | 75 | 2.0 | 2.0 | 0.00 | 0.00 | 0.00 | 49 | |
| 20260502045410 | 54 | 87 | 1.0 | 2.0 | 0.00 | 0.00 | 0.00 | 47 | |
| 20260502044902 | 54 | 85 | 2.0 | 3.0 | 0.00 | 0.00 | 0.00 | 46 | |
| 20260502044358 | 55 | 84 | 2.0 | 3.0 | 0.00 | 0.00 | 0.00 | 45 | |
| 20260502043855 | 54 | 78 | 2.0 | 3.0 | 0.00 | 0.00 | 0.00 | 45 | |
| 20260502043353 | 54 | 64 | 2.0 | 2.0 | 0.00 | 0.00 | 0.00 | 47 | |
| 20260502042852 | 54 | 55 | 1.0 | 2.0 | 0.00 | 0.00 | 0.00 | 44 | |
| 20260502042350 | 55 | 64 | 2.0 | 2.0 | 0.00 | 0.00 | 0.00 | 44 | |
| 20260502041847 | 55 | 106 | 0.0 | 2.0 | 0.00 | 0.00 | 0.00 | 43 | |
| 20260502041344 | 56 | 81 | 2.0 | 2.0 | 0.00 | 0.00 | 0.00 | 42 | |
| 20260502040841 | 56 | 68 | 2.0 | 3.0 | 0.00 | 0.00 | 0.00 | 42 | |
| 20260502040338 | 56 | 76 | 2.0 | 2.0 | 0.00 | 0.00 | 0.00 | 43 | |
| 20260502035834 | 57 | 77 | 1.0 | 2.0 | 0.00 | 0.00 | 0.00 | 41 | |
| 20260502035331 | 57 | 87 | 1.0 | 2.0 | 0.00 | 0.00 | 0.00 | 41 | |
| 20260502034828 | 58 | 82 | 2.0 | 2.0 | 0.00 | 0.00 | 0.00 | 40 | |
| 20260502034327 | 59 | 88 | 1.0 | 2.0 | 0.00 | 0.00 | 0.00 | 39 | |
| 20260502033825 | 59 | 117 | 1.0 | 2.0 | 0.00 | 0.00 | 0.00 | 36 | |
| 20260502033322 | 59 | 94 | 1.0 | 2.0 | 0.00 | 0.00 | 0.00 | 40 | |
| 20260502032819 | 59 | 95 | 2.0 | 2.0 | 0.00 | 0.00 | 0.00 | 39 | |
| 20260502032315 | 59 | 87 | 2.0 | 2.0 | 0.00 | 0.00 | 0.00 | 40 | |
| 20260502031813 | 60 | 77 | 1.0 | 2.0 | 0.00 | 0.00 | 0.00 | 40 | |
| 20260502031311 | 60 | 80 | 1.0 | 2.0 | 0.00 | 0.00 | 0.00 | 39 | |
| 20260502030809 | 60 | 72 | 2.0 | 2.0 | 0.00 | 0.00 | 0.00 | 39 | |
| 20260502030307 | 60 | 71 | 1.0 | 2.0 | 0.00 | 0.00 | 0.00 | 39 | |
| 20260502025804 | 61 | 120 | 1.0 | 1.0 | 0.00 | 0.00 | 0.00 | 40 | |
| 20260502025302 | 62 | 124 | 1.0 | 1.0 | 0.00 | 0.00 | 0.00 | 39 | |
| 20260502024759 | 63 | 135 | 0.0 | 1.0 | 0.00 | 0.00 | 0.00 | 37 | |
| 20260502024256 | 64 | 89 | 0.0 | 1.0 | 0.00 | 0.00 | 0.00 | 35 | |
| 20260502023755 | 65 | 110 | 0.0 | 0.0 | 0.00 | 0.00 | 0.00 | 34 | |
| 20260502023252 | 67 | 103 | 0.0 | 1.0 | 0.00 | 0.00 | 0.00 | 32 | |
| 20260502022749 | 68 | 100 | 0.0 | 2.0 | 0.00 | 0.00 | 0.00 | 30 | |
| 20260502022245 | 69 | 101 | 1.0 | 2.0 | 0.00 | 0.00 | 0.00 | 29 | |
| 20260502021742 | 69 | 95 | 1.0 | 2.0 | 0.00 | 0.00 | 0.00 | 27 | |
| 20260502021240 | 70 | 73 | 0.0 | 2.0 | 0.00 | 0.00 | 0.00 | 27 | |
| 20260502020737 | 71 | 57 | 2.0 | 2.0 | 0.00 | 0.00 | 0.00 | 26 |